Wind_Speed
19 20 21 22 23 23 22 21 20 20 21 22 22 23 23 23 24 27 25 22 23 27 26 27 27 29 28 28 30 31 30 29 25 18 22 24 22 30 29 40 44 39 23 24 25 18 13 16 12 17 15 17 13 20
20 20 20 21 21 20 17 16 16 16 16 17 17 19 20 21 22 26 27 23 22 25 29 27 29 27 26 26 28 31 32 32 20 14 14 12 19 27 28 29 28 32 34 36 26 28 25 23 20 20 27 25 28 24
19 19 20 18 15 15 16 18 18 18 17 16 17 17 17 19 21 22 21 19 21 24 28 30 26 13 18 24 24 35 37 36 34 32 34 34 37 36 34 34 33 26 18 24 26 31 28 27 27 31 28 28 26 27
18 18 18 17 17 18 20 20 19 17 18 17 16 17 18 18 19 21 21 18 20 22 28 31 21 20 16 23 26 28 30 29 26 29 31 33 34 30 28 26 20 21 22 24 25 28 20 15 15 17 20 18 26 30
18 18 18 17 17 17 16 16 17 16 15 15 15 14 14 14 16 19 19 16 17 19 25 26 22 19 17 17 20 26 24 25 28 32 36 32 19 13 16 19 29 25 21 21 26 19 19 21 19 21 28 29 26 17
19 18 17 17 17 16 15 14 14 14 14 13 12 10 10 11 12 14 14 15 16 17 22 28 18 11 15 18 18 16 18 13 18 21 25 22 24 19 19 32 29 26 21 19 25 25 24 23 26 23 29 23 19 16
19 19 17 17 16 16 14 13 14 13 12 11 11 9 11 11 12 10 7 9 10 11 22 22 21 6 3 5 9 12 13 18 19 21 27 27 28 26 33 39 26 27 27 30 25 22 28 27 25 18 14 12 15 15
21 20 17 17 16 13 12 12 14 12 12 12 13 12 11 11 10 7 6 12 16 17 21 16 19 24 15 15 14 12 13 15 23 26 31 34 31 31 38 39 33 30 27 29 24 19 25 21 21 17 16 17 16 19
21 18 18 17 16 13 12 14 12 14 13 13 11 10 10 11 11 10 13 15 17 14 17 22 28 25 8 11 20 25 24 23 24 31 34 32 36 34 43 40 39 36 34 35 25 18 24 20 18 19 18 16 20 20
22 20 20 17 15 15 14 13 15 15 14 12 11 9 8 9 8 7 8 11 15 19 25 29 27 31 28 27 27 26 15 12 15 23 18 27 38 37 36 36 40 38 32 27 27 24 20 22 19 19 18 21 18 12
23 21 20 18 16 17 16 16 17 17 15 11 7 6 6 6 7 6 6 6 7 12 18 18 13 14 14 18 22 11 10 12 11 13 14 16 29 30 31 30 30 28 28 26 28 25 19 19 16 18 19 19 11 18
24 22 20 19 19 19 18 19 17 14 9 7 7 5 5 6 6 6 5 6 8 8 10 12 12 16 20 18 14 9 11 7 9 8 9 14 21 22 21 24 23 20 14 20 25 34 29 19 13 18 12 14 14 12
24 23 22 20 23 23 19 18 16 15 12 9 5 2 4 5 6 5 6 10 10 19 27 29 26 29 19 14 12 8 7 9 9 7 9 11 18 18 20 24 25 14 4 14 19 33 29 18 17 15 11 14 11 14
24 23 24 24 23 21 18 20 19 14 10 6 3 4 4 4 5 7 12 15 21 24 27 24 22 17 23 14 10 6 7 7 6 5 7 12 14 23 23 20 18 11 4 3 12 21 22 17 14 16 15 13 15 14
25 28 25 24 22 20 22 21 17 12 10 5 3 4 6 8 10 13 17 18 22 27 27 24 23 10 9 7 5 7 5 4 4 4 11 15 17 26 26 17 7 8 8 8 9 13 11 15 12 15 19 17 17 15
32 28 26 23 21 22 23 20 17 12 12 8 7 6 7 13 15 16 18 20 22 25 20 16 6 5 5 4 4 5 3 4 6 18 24 27 24 21 21 8 2 1 12 18 17 16 16 15 14 16 16 15 13 11
30 27 24 22 20 23 21 19 17 16 9 7 4 5 11 20 22 17 17 17 21 21 19 11 6 4 4 4 4 5 7 16 13 20 26 29 23 17 14 7 6 10 16 15 13 12 13 12 13 13 12 10 10 9
23 20 20 19 20 23 21 17 13 11 15 18 17 16 20 18 18 14 13 15 19 18 17 11 12 17 9 9 13 16 21 24 21 26 29 30 24 14 11 13 14 13 13 11 8 6 7 9 10 11 11 11 10 9
16 17 17 16 17 18 17 15 16 11 17 17 18 16 14 12 12 16 16 18 19 18 19 15 8 11 15 15 17 22 25 27 27 27 25 27 23 15 12 19 18 17 16 12 10 10 11 12 12 11 11 10 10 10
13 12 14 15 14 10 4 6 10 13 13 17 15 14 18 20 18 15 16 16 17 18 18 15 14 15 18 22 26 26 25 23 24 25 22 26 22 16 11 24 22 21 18 15 14 13 13 13 13 13 12 11 10 10
14 13 12 11 10 6 4 6 12 13 15 19 15 20 19 17 15 15 13 13 15 16 14 16 16 15 17 17 19 18 19 22 21 22 22 24 19 13 11 18 27 25 20 15 13 13 15 15 14 12 11 11 10 10
9 9 10 9 9 10 15 16 19 21 23 23 19 19 21 18 15 14 15 14 17 17 15 15 14 15 18 20 19 18 18 18 18 20 21 21 17 12 11 20 26 23 19 16 14 14 13 13 13 12 12 11 11 11
3 9 12 14 15 12 14 17 19 22 22 20 21 19 20 19 18 19 18 20 20 19 15 17 19 21 23 24 23 20 20 20 19 19 19 17 15 10 13 22 25 24 20 18 15 13 13 14 13 13 12 11 11 11
8 6 13 13 16 18 22 20 24 24 24 20 20 21 20 18 20 22 23 24 23 17 15 20 19 16 15 17 18 20 20 20 20 20 19 17 14 10 14 21 24 23 21 19 15 13 13 13 13 13 12 12 12 11
10 8 7 11 13 12 16 18 16 16 18 17 19 22 24 20 23 26 21 19 21 18 20 17 14 16 19 20 21 21 20 21 23 23 20 17 15 13 15 22 25 25 23 20 17 17 15 14 14 13 13 13 12 11
8 7 7 8 11 13 15 16 17 18 22 24 24 20 22 24 25 17 20 24 26 23 24 24 23 22 23 27 29 29 27 24 22 21 19 18 15 14 15 20 24 23 23 24 20 22 16 16 15 15 14 14 12 11
10 12 18 21 21 23 25 25 24 25 27 29 26 23 19 15 15 18 18 18 20 24 27 30 30 31 35 37 35 29 27 25 23 23 19 19 17 15 16 17 19 19 19 22 21 16 16 17 16 16 15 14 13 12
15 18 21 22 23 23 25 28 29 30 25 20 22 21 13 14 19 24 29 34 40 41 41 43 44 45 46 42 36 32 27 26 23 22 21 19 19 19 19 19 22 24 22 19 18 19 19 18 16 17 17 16 14 13
17 23 26 26 25 27 34 35 37 33 30 27 28 31 34 34 36 36 39 44 45 45 42 40 37 35 35 34 32 29 27 25 23 19 20 18 18 20 21 22 21 21 22 24 22 21 20 18 18 19 18 17 15 14
28 29 30 34 35 35 31 25 26 28 28 29 33 37 38 37 37 36 37 37 37 36 35 33 31 29 29 28 27 25 26 25 25 25 24 20 19 21 21 19 18 19 20 17 16 18 18 21 22 20 18 17 16 14
34 35 35 31 30 26 26 27 29 29 30 29 26 30 30 30 30 31 27 23 23 23 25 26 26 26 25 22 24 24 24 23 25 27 26 22 21 22 21 21 22 21 20 19 20 18 22 22 21 19 17 16 15 14
33 32 33 32 30 25 24 26 24 25 25 24 23 23 22 17 17 18 18 21 23 25 27 28 27 24 25 29 30 29 26 23 22 22 26 23 23 23 21 22 23 23 26 22 20 23 22 21 19 17 15 14 13 14
36 31 29 25 25 23 24 26 29 32 29 25 15 10 11 14 16 18 21 23 25 26 25 24 23 23 24 27 24 23 22 23 22 21 21 22 20 20 21 21 22 23 22 23 22 21 21 19 16 14 13 14 16 16
Wind_Direction
229 233 236 239 242 245 247 249 250 248 248 250 254 253 253 251 252 251 253 250 251 261 268 269 268 268 267 264 268 275 284 279 280 263 260 269 265 271 263 270 267 267 268 266 272 268 268 291 265 247 282 257 286 305
229 231 233 234 235 238 240 240 244 246 248 249 251 253 253 253 251 250 250 252 253 259 267 268 264 264 271 275 276 269 266 262 250 250 248 257 273 280 273 258 269 248 252 260 258 259 265 271 271 276 294 303 284 280
227 227 230 233 235 237 242 244 249 250 250 253 252 251 254 258 254 252 252 251 254 260 268 266 271 263 254 262 269 261 259 257 261 262 268 272 273 276 261 266 258 261 267 248 263 265 278 281 276 274 282 276 276 272
227 231 236 238 240 245 249 254 255 250 249 253 246 252 257 254 249 248 244 246 248 259 270 271 280 278 279 257 257 262 265 261 256 257 262 258 261 265 251 276 258 259 271 267 271 267 283 290 293 279 277 276 273 272
233 234 235 239 245 246 249 251 251 248 244 236 249 253 247 241 242 244 235 239 249 258 273 283 275 276 281 268 264 280 254 252 251 255 259 259 261 287 271 268 261 261 275 267 273 283 271 276 290 297 274 273 291 246
239 240 239 240 248 241 245 253 253 228 230 241 238 227 226 223 232 235 235 242 257 267 274 286 293 289 270 259 266 265 272 270 268 272 265 268 263 263 267 275 275 278 282 287 289 287 275 277 280 287 289 274 260 236
241 239 242 236 237 241 247 246 212 218 230 222 203 201 201 195 211 223 242 264 266 250 257 275 295 299 274 295 297 290 282 270 268 270 268 269 266 265 266 269 277 285 288 293 292 278 268 269 274 281 279 272 283 272
236 237 231 229 232 234 228 206 207 216 194 186 186 186 197 216 234 245 257 254 256 263 264 289 284 283 298 293 294 304 302 275 266 269 267 270 275 266 264 272 289 290 288 293 293 274 257 262 263 258 275 277 276 285
233 226 225 222 219 219 204 201 202 192 188 185 186 203 226 245 266 268 248 247 253 242 271 271 272 290 287 299 303 300 305 292 272 261 262 264 267 255 276 291 295 297 295 287 281 257 239 247 267 271 280 273 281 279
224 220 213 209 208 197 195 195 188 186 187 192 199 221 254 264 255 259 255 250 255 255 251 262 271 280 286 289 293 293 290 271 258 275 280 258 269 285 296 296 291 284 274 274 254 242 256 251 268 276 274 271 272 267
212 211 206 204 199 189 194 185 182 186 192 197 216 241 250 257 273 262 246 246 248 253 268 284 288 300 304 290 284 273 267 280 274 287 251 269 276 286 283 291 284 278 267 249 234 224 242 245 259 282 271 270 210 167
202 199 197 193 189 183 187 186 185 184 180 200 231 267 262 260 242 224 241 234 250 262 265 299 305 302 301 293 280 254 254 241 251 255 251 270 288 283 298 316 308 306 275 235 230 218 221 234 253 277 222 170 166 181
196 193 188 187 181 188 180 179 170 180 192 210 239 269 255 243 239 232 237 250 254 272 296 291 292 299 287 265 236 222 234 242 262 244 258 278 327 338 322 319 322 329 287 228 219 214 217 231 252 225 182 159 183 176
189 181 177 177 178 179 174 170 181 182 189 201 214 248 260 242 243 288 267 288 329 333 332 319 312 290 290 267 220 239 245 255 254 266 296 342 329 327 328 328 328 348 50 173 193 200 214 249 193 160 169 165 173 178
167 165 167 168 175 172 169 176 177 180 194 190 244 259 263 268 281 313 327 328 322 322 324 315 315 283 258 220 232 229 245 256 251 299 322 324 318 324 331 324 310 353 212 213 209 220 228 161 169 162 162 167 177 185
150 155 160 165 167 168 170 177 179 191 203 221 235 238 296 316 330 321 306 305 318 324 335 334 299 280 223 229 244 237 262 274 321 345 341 331 314 304 328 330 27 25 141 125 122 137 150 154 157 167 177 177 179 183
151 154 155 163 168 170 171 180 191 203 212 233 245 280 304 311 319 319 318 322 325 331 333 334 303 234 275 261 253 251 260 290 319 317 322 336 325 301 309 228 184 155 151 147 152 156 156 164 171 175 175 173 178 186
144 154 161 165 166 169 181 189 202 222 242 256 282 318 308 311 315 326 324 316 315 317 319 312 283 288 283 274 282 295 303 308 306 312 318 323 329 299 284 211 180 170 169 171 166 165 175 183 182 179 180 185 191 200
145 154 160 161 164 169 174 199 217 255 275 292 302 321 313 317 321 319 313 306 304 307 307 306 285 282 292 293 292 297 304 305 311 314 316 320 321 300 267 206 193 193 183 181 192 197 192 186 182 184 191 197 201 210
135 141 148 157 160 167 200 244 254 272 288 304 312 319 309 308 309 312 310 306 307 312 311 303 322 314 297 287 287 296 298 303 311 314 313 320 319 306 259 207 200 196 194 195 198 197 196 195 196 197 200 204 210 219
144 143 147 158 170 204 281 268 274 284 294 302 313 317 314 320 319 316 315 306 314 326 321 312 308 308 305 294 288 292 297 304 306 310 313 322 320 304 248 210 197 195 194 199 197 198 197 195 200 202 207 214 223 233
144 162 176 194 234 273 273 269 281 291 292 298 303 308 317 324 324 332 321 316 331 333 314 313 308 307 307 305 292 291 290 296 298 304 309 318 320 296 239 204 196 195 193 194 194 197 202 209 210 212 217 225 235 247
242 215 223 245 265 265 267 273 280 292 290 294 303 313 317 324 322 333 324 321 320 319 314 310 307 300 301 300 299 289 285 292 296 302 303 308 311 287 219 203 199 196 198 201 203 202 207 215 219 221 227 237 247 252
275 278 250 243 243 250 264 269 279 285 290 296 302 304 313 314 318 317 315 314 310 309 292 297 310 316 317 321 308 296 289 286 290 298 300 299 297 278 222 208 207 206 206 210 214 219 225 228 228 230 239 250 253 253
282 281 247 257 261 262 273 282 289 291 296 304 300 301 306 304 295 300 303 299 300 293 283 285 287 308 321 325 331 333 317 294 287 289 291 291 282 262 229 213 217 219 219 223 230 234 237 242 238 241 250 253 250 245
278 260 245 260 260 264 271 275 287 293 293 294 295 300 298 295 289 281 283 284 286 281 278 281 282 290 308 320 318 316 315 318 299 283 278 277 268 250 240 228 224 225 230 230 235 235 237 241 239 245 248 242 237 240
258 265 274 279 279 281 283 288 290 291 294 294 298 296 291 275 279 276 281 279 285 284 285 289 295 295 297 301 304 305 305 305 301 291 279 273 261 236 232 230 227 230 232 232 229 233 235 237 241 243 236 232 232 244
267 295 296 294 290 290 288 292 296 295 297 287 281 271 261 267 276 282 282 284 287 288 287 287 287 287 289 289 290 291 291 293 291 289 282 269 255 234 229 228 229 228 222 224 232 232 234 236 240 234 228 229 238 252
284 306 300 292 287 287 291 293 294 291 284 276 273 274 274 277 284 289 290 288 289 292 296 296 294 292 290 286 282 279 276 278 275 275 276 267 252 244 242 237 228 225 236 235 226 230 232 238 235 229 227 234 245 258
297 298 294 295 295 296 300 296 286 279 277 276 277 280 283 288 291 286 284 286 289 290 291 294 298 299 297 295 286 273 266 265 260 259 263 260 254 249 244 237 233 230 228 221 225 234 240 239 229 225 231 240 249 259
304 299 298 301 301 304 296 289 284 283 286 287 281 281 290 290 288 289 297 300 298 300 300 299 300 295 287 285 287 283 271 262 257 252 256 252 246 242 244 246 241 238 230 228 235 235 229 223 222 229 238 246 255 266
314 312 310 307 307 305 296 294 295 289 289 290 292 291 284 288 297 304 307 308 304 301 300 300 301 301 300 288 282 282 281 272 259 255 248 250 244 239 236 240 231 225 242 228 222 220 219 220 226 236 245 252 261 272
312 314 315 311 317 318 316 313 310 306 306 309 301 265 290 310 313 311 310 305 304 303 302 302 303 302 308 311 297 274 269 265 268 259 247 246 243 241 235 228 227 232 227 219 217 217 219 224 232 240 244 251 265 278
Height
2936 2940 2942 2945 2948 2950 2952 2954 2956 2957 2959 2961 2963 2965 2967 2969 2970 2970 2971 2974 2974 2972 2973 2974 2975 2974 2975 2976 2976 2977 2977 2976 2977 2978 2979 2976 2974 2972 2972 2967 2965 2967 2968 2963 2963 2959 2957 2956 2958 2958 2957 2955 2954 2955
2932 2935 2938 2940 2943 2945 2947 2949 2951 2953 2954 2956 2958 2960 2961 2963 2964 2964 2964 2967 2968 2967 2967 2967 2966 2966 2968 2970 2970 2968 2968 2969 2971 2972 2972 2970 2969 2966 2964 2958 2956 2958 2956 2954 2958 2952 2952 2952 2952 2949 2949 2950 2949 2949
2928 2931 2933 2936 2938 2941 2943 2945 2947 2948 2950 2952 2953 2955 2956 2957 2958 2959 2960 2961 2962 2962 2960 2957 2959 2962 2959 2960 2961 2957 2956 2959 2960 2963 2964 2963 2960 2958 2954 2953 2952 2951 2949 2949 2949 2944 2944 2943 2943 2944 2944 2943 2943 2942
2924 2927 2929 2932 2934 2936 2938 2940 2941 2943 2945 2947 2948 2950 2951 2952 2952 2953 2955 2957 2958 2958 2954 2949 2953 2952 2953 2952 2951 2950 2949 2951 2953 2954 2954 2954 2952 2948 2944 2945 2944 2944 2944 2944 2941 2938 2939 2937 2936 2936 2937 2937 2935 2933
2920 2923 2925 2927 2930 2932 2933 2935 2937 2938 2940 2942 2944 2945 2946 2947 2948 2949 2950 2953 2954 2955 2949 2945 2946 2947 2946 2945 2945 2943 2941 2943 2944 2945 2944 2943 2943 2941 2939 2939 2931 2935 2935 2937 2933 2935 2930 2928 2928 2929 2929 2929 2927 2925
2916 2918 2921 2923 2925 2927 2929 2931 2932 2934 2936 2938 2939 2941 2942 2944 2945 2946 2948 2950 2950 2949 2947 2940 2938 2939 2940 2939 2938 2938 2937 2936 2937 2938 2936 2934 2936 2938 2935 2930 2924 2926 2928 2929 2926 2925 2924 2922 2923 2924 2922 2919 2919 2921
2910 2913 2915 2918 2920 2923 2925 2927 2929 2931 2933 2935 2937 2938 2940 2941 2943 2946 2948 2948 2947 2947 2943 2938 2935 2934 2935 2935 2935 2934 2934 2932 2933 2933 2928 2929 2930 2932 2926 2921 2914 2919 2921 2921 2920 2918 2915 2916 2916 2917 2915 2912 2913 2914
2904 2907 2910 2913 2916 2919 2922 2924 2927 2929 2931 2933 2935 2937 2939 2941 2942 2944 2946 2945 2943 2943 2942 2939 2933 2931 2932 2931 2931 2930 2930 2929 2926 2925 2923 2921 2922 2921 2912 2908 2910 2911 2912 2911 2910 2909 2907 2908 2909 2909 2909 2908 2907 2907
2899 2903 2906 2910 2913 2916 2919 2922 2925 2927 2930 2932 2935 2937 2938 2939 2940 2941 2941 2941 2940 2943 2938 2933 2929 2927 2927 2927 2927 2925 2924 2921 2920 2916 2915 2916 2910 2903 2899 2900 2899 2899 2899 2897 2899 2899 2899 2901 2902 2903 2903 2902 2900 2899
2893 2898 2902 2906 2911 2914 2918 2921 2924 2927 2930 2932 2934 2936 2937 2937 2937 2937 2938 2936 2935 2934 2930 2926 2926 2922 2924 2922 2920 2920 2916 2913 2908 2905 2906 2900 2893 2892 2892 2891 2889 2887 2886 2886 2887 2888 2891 2894 2896 2896 2896 2895 2895 2894
2888 2893 2899 2904 2908 2912 2916 2919 2923 2926 2929 2932 2934 2935 2935 2935 2935 2934 2934 2933 2931 2927 2922 2920 2920 2918 2918 2915 2914 2915 2912 2910 2904 2901 2899 2892 2886 2888 2886 2882 2876 2872 2872 2874 2877 2881 2884 2888 2890 2891 2889 2889 2890 2893
2884 2890 2896 2902 2906 2911 2915 2918 2922 2927 2930 2932 2933 2933 2933 2933 2932 2932 2930 2929 2926 2923 2919 2916 2915 2913 2912 2911 2911 2909 2907 2905 2899 2896 2893 2884 2883 2880 2878 2875 2869 2864 2861 2862 2867 2871 2877 2881 2884 2886 2885 2886 2890 2893
2881 2888 2894 2900 2905 2910 2914 2919 2924 2926 2929 2930 2932 2932 2931 2931 2929 2928 2926 2924 2922 2919 2915 2912 2911 2908 2905 2904 2903 2903 2901 2897 2895 2890 2885 2881 2879 2876 2873 2868 2863 2857 2856 2858 2859 2865 2872 2876 2878 2879 2883 2886 2890 2893
2881 2887 2894 2899 2905 2910 2914 2919 2922 2926 2929 2930 2931 2930 2929 2927 2926 2924 2922 2920 2919 2915 2911 2908 2905 2904 2902 2901 2899 2898 2896 2894 2890 2885 2882 2881 2878 2873 2869 2864 2861 2858 2856 2857 2859 2865 2870 2873 2874 2878 2882 2886 2889 2891
2881 2889 2895 2902 2906 2911 2915 2919 2923 2926 2928 2929 2929 2928 2926 2925 2924 2923 2920 2918 2917 2912 2907 2902 2898 2897 2896 2896 2895 2895 2892 2888 2885 2884 2881 2879 2876 2870 2866 2862 2860 2859 2859 2861 2863 2865 2868 2872 2875 2877 2880 2884 2888 2891
2886 2892 2898 2903 2908 2912 2916 2920 2923 2926 2927 2928 2926 2925 2924 2923 2922 2921 2919 2916 2913 2908 2903 2899 2896 2895 2893 2893 2892 2890 2889 2886 2883 2880 2879 2875 2871 2869 2865 2863 2861 2861 2861 2863 2865 2868 2870 2872 2875 2878 2881 2884 2887 2889
2891 2895 2900 2905 2909 2913 2918 2921 2923 2925 2926 2925 2923 2923 2922 2920 2917 2915 2913 2911 2909 2905 2902 2899 2897 2894 2892 2891 2890 2888 2886 2884 2882 2880 2876 2872 2867 2865 2864 2863 2863 2863 2865 2866 2868 2870 2871 2873 2876 2878 2881 2883 2885 2887
2899 2902 2905 2908 2911 2915 2919 2922 2924 2924 2922 2921 2922 2922 2919 2916 2913 2911 2910 2908 2905 2903 2900 2899 2897 2894 2892 2889 2887 2886 2883 2881 2878 2875 2872 2868 2864 2862 2861 2862 2862 2864 2865 2867 2868 2869 2871 2873 2876 2878 2880 2882 2884 2886
2905 2907 2910 2912 2915 2919 2921 2923 2923 2922 2920 2920 2919 2917 2914 2913 2912 2909 2906 2904 2901 2899 2897 2894 2893 2890 2889 2887 2885 2882 2879 2876 2873 2870 2867 2864 2860 2858 2857 2859 2861 2863 2864 2866 2868 2870 2871 2873 2875 2877 2879 2882 2883 2885
2912 2914 2915 2917 2920 2922 2923 2923 2922 2920 2917 2917 2915 2913 2911 2909 2906 2904 2902 2899 2896 2895 2893 2890 2889 2887 2885 2882 2879 2877 2874 2872 2869 2866 2863 2860 2856 2853 2852 2854 2857 2860 2863 2864 2866 2868 2870 2873 2874 2876 2878 2880 2882 2883
2915 2917 2918 2920 2921 2922 2922 2921 2919 2917 2915 2912 2911 2909 2906 2905 2902 2900 2897 2895 2893 2891 2889 2887 2884 2881 2878 2876 2874 2872 2870 2867 2864 2862 2859 2856 2852 2850 2849 2850 2854 2857 2860 2863 2866 2868 2869 2871 2873 2875 2876 2878 2879 2880
2919 2920 2921 2921 2921 2920 2918 2917 2916 2914 2911 2909 2907 2905 2902 2899 2897 2895 2893 2890 2889 2887 2883 2881 2879 2876 2874 2871 2868 2866 2864 2862 2860 2858 2855 2852 2849 2847 2847 2849 2852 2856 2859 2862 2864 2866 2867 2869 2870 2872 2873 2874 2875 2876
2919 2919 2919 2919 2918 2915 2914 2911 2910 2909 2907 2904 2902 2900 2898 2895 2893 2891 2889 2886 2884 2881 2880 2877 2875 2871 2868 2866 2863 2861 2859 2857 2856 2854 2851 2849 2847 2845 2845 2847 2850 2853 2856 2859 2861 2863 2864 2865 2866 2868 2869 2870 2871 2872
2917 2917 2916 2915 2912 2910 2908 2906 2905 2904 2902 2900 2898 2895 2893 2891 2890 2887 2884 2881 2878 2876 2874 2872 2870 2867 2864 2861 2857 2855 2854 2852 2850 2849 2847 2845 2844 2843 2843 2846 2849 2852 2854 2856 2858 2859 2860 2861 2862 2864 2865 2866 2866 2867
2916 2914 2912 2909 2907 2905 2903 2901 2900 2899 2897 2896 2893 2891 2889 2887 2883 2880 2878 2875 2872 2870 2869 2866 2864 2862 2858 2856 2853 2851 2848 2846 2845 2844 2843 2841 2840 2840 2840 2842 2844 2847 2849 2851 2853 2855 2856 2856 2857 2858 2860 2861 2861 2862
2911 2909 2907 2904 2902 2901 2899 2897 2896 2895 2892 2890 2888 2887 2884 2881 2878 2874 2871 2869 2866 2864 2862 2859 2856 2855 2853 2851 2848 2846 2843 2841 2838 2837 2836 2835 2835 2835 2836 2837 2839 2842 2844 2846 2848 2848 2849 2851 2853 2854 2855 2856 2857 2857
2906 2904 2902 2900 2899 2897 2894 2892 2891 2889 2886 2882 2879 2878 2877 2873 2868 2866 2865 2863 2861 2857 2854 2851 2849 2846 2844 2843 2842 2840 2837 2835 2833 2831 2830 2829 2829 2829 2830 2832 2835 2837 2838 2839 2840 2841 2844 2846 2847 2848 2849 2850 2852 2853
2901 2899 2897 2896 2893 2891 2888 2885 2883 2880 2877 2875 2872 2870 2869 2865 2863 2861 2859 2857 2851 2848 2846 2844 2840 2837 2833 2833 2832 2831 2829 2828 2825 2824 2823 2823 2823 2823 2824 2825 2827 2828 2829 2831 2833 2836 2838 2840 2841 2842 2844 2845 2847 2847
2896 2894 2893 2890 2887 2884 2880 2878 2874 2871 2869 2866 2863 2860 2857 2857 2855 2852 2849 2843 2839 2835 2832 2829 2828 2825 2822 2820 2819 2819 2819 2818 2817 2816 2815 2815 2816 2817 2817 2817 2818 2820 2822 2824 2826 2829 2831 2833 2835 2837 2839 2840 2841 2841
2891 2888 2883 2879 2876 2872 2870 2868 2864 2861 2859 2857 2853 2849 2847 2846 2845 2839 2834 2832 2829 2826 2822 2819 2816 2813 2811 2809 2808 2808 2808 2808 2808 2807 2807 2807 2808 2808 2808 2809 2810 2812 2814 2816 2819 2822 2824 2827 2829 2831 2833 2834 2835 2835
2882 2877 2872 2869 2864 2863 2859 2856 2853 2850 2848 2846 2844 2839 2837 2834 2831 2827 2825 2822 2819 2816 2813 2810 2809 2806 2803 2801 2799 2797 2798 2798 2797 2798 2798 2799 2799 2800 2801 2803 2805 2806 2808 2810 2813 2815 2818 2821 2823 2825 2827 2828 2829 2829
2870 2866 2861 2856 2853 2853 2848 2844 2842 2839 2838 2835 2833 2830 2827 2825 2822 2821 2818 2815 2812 2809 2806 2803 2800 2799 2796 2793 2792 2790 2789 2788 2788 2788 2789 2790 2791 2792 2794 2796 2798 2800 2802 2803 2806 2809 2812 2815 2818 2819 2821 2822 2822 2822
2858 2856 2852 2846 2843 2841 2838 2836 2832 2827 2826 2824 2823 2821 2820 2819 2816 2814 2811 2807 2805 2802 2799 2797 2794 2791 2788 2785 2782 2780 2780 2780 2780 2780 2780 2782 2783 2785 2787 2789 2791 2793 2795 2797 2800 2804 2807 2810 2812 2814 2815 2815 2815 2815